User: anonymous   Login
Location: Castiglione Fibocchi
(43.5333°N, 11.7667°E)
Time: 09:44:25
(UTC+00:00)
Language:

Cosmos 1908 - Orbit

View from above orbital plane
View from above orbital plane
View from above satellite
View from above satellite

Ground track
Ground track

The orbit data is extracted from the following two-line orbital elements,

1 18748U 88001A   20293.59377303 +.00000270 +00000-0 +12722-4 0  9995
2 18748 082.4689 295.0932 0013231 357.8048 002.3124 15.15016023790475
Epoch (UTC): 19 October 2020 14:15:01
Eccentricity: 0.0013231
inclination: 82.4689°
perigee height: 512 km
apogee height: 530 km
right ascension of ascending node: 295.0932°
argument of perigee: 357.8048°
revolutions per day: 15.15016023
mean anomaly at epoch: 2.3124°
orbit number at epoch: 79047

The dashed part of the orbit path shows where the satellite is in the earth's shadow,  

DLR